DECAYED

SL-12 DEB, 26813 (Decayed)

Orbit data source: Space-Track

SL-12 DEB, 26813 was space debris in LEO originally from a launch on Tue, 10 Jan 1989 UTC launched from the Tyuratam Missile And Space Complex (TTMTR). Debris objects in space refer to the collection of defunct objects orbiting the Earth. Examples of debris include non-operational satellites, rocket bodies, and fragments generated from explosions, collisions, or faulty payload assembly.

Not visible in the next 10 days
Identifier
26813, 1989-001P
Orbit
Decayed
Country
Flag of CISCIS
Related business
Manufacturer
Unknown
Mission
Decayed spacecraft
Bus & Motor
Unknown
Mass
Unknown
Launch date (UTC)
1989-01-10 (37 years ago)
Launch vehicle
Unknown
Launch site
Tyuratam Missile And Space Complex (TTMTR)
Object type
Payload
Rocket body
Debris
Shape & HBR
Unknown shape, 0.2 m
Radar Cross Section
Medium (>0.1 m² and <1 m²)

Expand to show TLE details & history
Last TLE update: 10 months ago

TLE from 10 months ago
0 SL-12 DEB
1 26813U 89001P   25221.53571173  .04473433  00000-0  13668+0 0  9993
2 26813  65.4996   4.3849 0051273 310.2306  49.4350 15.28261713 61808
Epoch: 2025-08-09T12:51Z
TLE epoch observation values (Epoch: 2025-08-09T12:51:25.493Z)
Latitude
-0.00007°
Longitude
-146.74137°
Altitude
460.343 km
Speed
7.65 km/s
True Right ascension
00h 17m 32s
True Declination
0° 00' 00"
Sunlit
Object was in full shadow at epoch
Visualization orbit readout
Latitude
Unknown
Longitude
Unknown
Altitude
Unknown
Speed
Unknown
Apparent Right ascension
Unknown
Apparent Declination
Unknown
Sunlit
N/A
Visualization observer readout
Local Sidereal Time
00:51:24
Azimuth
Unknown
Elevation
Unknown
Doppler factor
Unknown
Orbital elements
Apogee altitude
514.62 km
Perigee altitude
444.298 km
Semi-major axis
6,857.596 km
Eccentricity
0.00513
Inclination
65.4996°
RAAN
4.3849°
Arg. of periapsis
310.2306°
True anomaly
49.8832°
Mean anomaly
49.435°
Eccentric anomaly
49.65891°
Mean motion
3.82195 °/min
Orbital period
94.19 mins
BSTAR
0.13668
Loading maneuver chart data...
Computing Atmospheric mass density...
Loading historical data...
Loading historical data...
Loading historical data...
Loading historical data...
Loading historical data...
Loading historical data...
Loading historical data...

Documentation

Showing up to 5 results
|